Simultaneous Nadir Overpasses (SNOs) Predictions

Prediction of SNOs between AQUA and METOP-A Satellite Orbit:

Table of predicted SNOs for the next 14.0 days since TLE Epoch: 11/17/2016
Index Date (AQUA) Time (AQUA) Lat,Lon (AQUA) SZA (AQUA ) Date (METOP-A) Time (METOP-A) Lat,Lon (METOP-A) SZA (METOP-A ) Distance(km) Time Diff (sec)
1 11/18/2016 14:16:16 -73.82, 140.04 86.85 11/18/2016 14:15:49 -73.81, 140.06 86.86 1.86 27
2 11/18/2016 15:05:44 73.86, -52.39 93.20 11/18/2016 15:06:27 73.89, -52.42 93.23 3.23 43
3 11/21/2016 09:50:31 -73.80,-153.48 86.24 11/21/2016 09:50:10 -73.80,-153.55 86.24 2.50 21
4 11/21/2016 10:40:00 73.89, 13.96 93.87 11/21/2016 10:40:48 73.87, 13.95 93.85 2.65 48
5 11/24/2016 04:35:09 73.16, 106.67 93.69 11/24/2016 04:34:03 73.12, 104.00 93.70 86.37 66
6 11/24/2016 05:24:48 -73.84, -87.13 85.61 11/24/2016 05:24:31 -73.83, -87.05 85.61 2.52 17
7 11/24/2016 06:14:16 73.89, 80.41 94.45 11/24/2016 06:15:09 73.90, 80.44 94.46 1.81 53
8 11/27/2016 00:09:29 73.38, 172.67 94.45 11/27/2016 00:08:20 73.35, 170.92 94.46 55.73 69
9 11/27/2016 00:59:04 -73.84, -20.69 85.07 11/27/2016 00:58:53 -73.82, -20.68 85.09 2.77 11
10 11/27/2016 01:48:32 73.89, 146.83 95.00 11/27/2016 01:49:31 73.88, 146.81 94.98 1.67 59
11 11/29/2016 19:43:49 73.60,-121.37 95.17 11/29/2016 19:42:38 73.53,-122.27 95.11 29.37 71
12 11/29/2016 20:33:19 -73.85, 45.72 84.57 11/29/2016 20:33:13 -73.85, 45.80 84.58 2.50 6
13 11/29/2016 21:22:47 73.91,-146.76 95.50 11/29/2016 21:23:51 73.91,-146.72 95.49 1.34 64




NCC Satellite Simultaneous Nadir Overpasses (SNOs) Prediction Service
